[[{"header":{"parameterUnit":"m.s-1","parameterCategory":1,"la1":30.2991,"la2":30.254,"lo1":-89.0895,"lo2":-89.0444,"dy":0.0017,"dx":0.0017,"nx":28,"ny":28,"refTime":"2023-08-17T03:00:00:Z","depth":0,"parameterNumber":2,"parameterNumberName":"U-component_of_WINDS"},"data":[0,0,0,0,0,0,0,0,0,0,0,0,0,0,0,0,0,0,0,0,0,0,0,0,0,0,0,0,0,0,0,0,0,0,0,0,0,0,0,0,0,0,0,0,0,0,0,0,0,0,0,0,0,0,0,0,0,0,2.3177,2.3177,0,2.3188,2.3188,2.3188,2.3135,2.3134,2.3132,2.3131,2.3143,2.3145,2.3147,0,0,0,0,0,0,0,0,0,0,0,0,0,2.311,2.3111,2.3177,2.3177,2.3177,2.3188,2.3188,2.3188,2.3136,2.3134,2.3132,2.313,2.3143,2.3145,2.3147,0,0,0,0,0,0,0,0,0,0,0,0,0,2.3132,2.3112,2.3177,2.3152,2.315,2.3188,2.3188,2.3188,2.3136,2.3134,2.3131,2.3129,2.3142,2.3144,2.3147,2.3209,0,0,2.3155,2.3156,0,0,0,0,0,0,0,0,2.3131,2.3134,2.3156,2.3154,2.3152,2.3158,2.3169,2.3195,2.3137,2.3141,2.3131,2.3128,2.315,2.3152,2.3159,2.321,2.321,2.3155,2.3157,2.3158,2.3159,0,0,0,0,0,0,0,2.3129,2.3134,2.3181,2.3156,2.3154,2.314,2.3141,2.3174,2.3159,2.3141,2.3137,2.3139,2.3148,2.3157,2.3159,2.3211,2.3155,2.3158,2.3159,2.316,2.331,2.3312,0,0,0,0,0,0,2.3131,2.3133,2.3181,2.3182,2.3135,2.3143,2.3144,2.3158,2.3158,2.3156,2.3141,2.3136,2.3153,2.3156,2.3159,2.3229,2.3158,2.316,2.3162,2.3307,2.331,2.3313,0,0,0,0,0,0,2.313,2.3136,2.318,2.3156,2.3161,2.3147,2.3163,2.316,2.3168,2.3158,2.3155,2.3152,2.3151,2.3155,2.3196,2.3229,2.3162,2.3164,2.3305,2.3308,2.3312,2.3372,0,0,0,0,0,0,2.3128,2.3136,2.3159,2.3157,2.3162,2.3218,2.3165,2.3162,2.3172,2.3166,2.3168,2.3166,2.315,2.3193,2.3199,2.3231,2.3166,2.3302,2.3306,2.3311,2.3367,2.3377,2.3386,0,0,0,0,0,2.3126,2.3177,2.3161,2.3167,2.3192,2.322,2.3223,2.3204,2.3175,2.3198,2.3192,2.3166,2.3225,2.3197,2.3204,2.3238,2.3299,2.3305,2.331,2.3363,2.3375,2.3385,0,0,0,0,0,0,2.3185,2.3176,2.3158,2.321,2.3216,2.3211,2.324,2.3218,2.3232,2.3226,2.3202,2.3203,2.3247,2.3247,2.3216,2.3296,2.3257,2.3264,2.3295,2.3306,2.3316,2.3314,2.3168,0,0,0,0,0,2.3203,2.3227,2.3219,2.3265,2.3269,2.3254,2.3266,2.325,2.3255,2.3258,2.3254,2.326,2.328,2.3294,2.3312,2.3367,2.3365,2.3393,2.3403,2.3411,2.3416,2.3443,2.3454,2.3331,2.3331,2.333,0,0,2.3243,2.3241,2.3258,2.3277,2.3279,2.3303,2.3257,2.3285,2.3302,2.3262,2.3299,2.3297,2.3303,2.335,2.3371,2.3351,2.345,2.3418,2.3424,2.3425,2.345,2.3461,2.3472,2.3334,2.3334,2.3333,0,0,2.3326,2.3329,2.3366,2.3369,2.3373,2.3363,2.3372,2.337,2.3366,2.3403,2.3373,2.3393,2.3429,2.3433,2.3439,2.3522,2.3498,2.3529,2.3578,2.3604,2.3614,2.3622,2.3649,2.3659,2.3535,2.3535,2.3536,0,2.3375,2.341,2.3388,2.3417,2.3425,2.339,2.3426,2.3431,2.3441,2.3447,2.3425,2.3466,2.3468,2.3514,2.3534,2.3542,2.355,2.3528,2.3614,2.3622,2.363,2.3655,2.3666,2.3539,2.3539,2.3538,2.3538,0,2.3467,2.3492,2.3522,2.3531,2.3543,2.3576,2.3559,2.3573,2.3557,2.3548,2.3585,2.3586,2.3601,2.3612,2.3597,2.3656,2.3643,2.3618,2.3578,2.3645,2.3669,2.3678,2.3544,2.3543,2.3542,2.3541,0,0,2.3588,2.3583,2.3594,2.3596,2.3597,2.3616,2.3647,2.3662,2.3673,2.3682,2.3706,2.3736,2.3711,2.3719,2.3704,2.3727,2.3789,2.3699,2.3698,2.3713,2.3852,2.3868,2.388,2.3774,2.3776,2.3777,2.385,0,2.3667,2.3718,2.3699,2.3752,2.3773,2.3738,2.3765,2.3768,2.3761,2.3778,2.3771,2.3791,2.3759,2.3763,2.3785,2.3777,2.3816,2.3772,2.3795,2.3796,2.3792,2.3893,2.3911,2.398,2.3859,2.3861,2.3862,0,2.3766,2.3776,2.383,2.3825,2.3833,2.3858,2.3868,2.3885,2.3888,2.3881,2.3889,2.3868,2.3897,2.3858,2.3897,2.3867,2.3875,2.3873,2.3875,2.3875,2.3831,2.3892,2.4002,2.4011,2.3877,2.3876,2.3875,0,2.3844,2.3872,2.3907,2.3911,2.3907,2.3924,2.3923,2.3923,2.3933,2.3942,2.3947,2.3961,2.3968,2.3979,2.3962,2.3936,2.4002,2.3963,2.3996,2.3996,2.4009,2.4008,2.4119,2.4019,2.4019,2.4019,2.4019,0,2.3933,2.3967,2.3941,2.3963,2.3999,2.3977,2.4014,2.4009,2.401,2.4029,2.4002,2.402,2.3998,2.4015,2.4002,2.4034,2.4039,2.4033,2.4029,2.4034,2.4034,2.4037,2.4031,2.4022,2.4021,2.4021,2.402,0,2.4026,2.4011,2.4046,2.4039,2.4037,2.4064,2.4058,2.4077,2.4068,2.4093,2.4097,2.4083,2.4101,2.4085,2.4104,2.4095,2.4137,2.4127,2.4135,2.4132,2.4165,2.4161,2.4279,2.4292,2.4187,2.4188,2.4189,0,2.4082,2.4107,2.4101,2.4112,2.4112,2.413,2.4138,2.4117,2.4127,2.4131,2.415,2.4165,2.4176,2.4206,2.4197,2.421,2.4199,2.424,2.4201,2.4204,2.4196,2.4194,2.4195,2.4247,2.4248,2.4249,2.425,0,2.4182,2.4173,2.4186,2.4196,2.4207,2.4214,2.4219,2.4229,2.4207,2.422,2.4237,2.4246,2.4263,2.4278,2.4288,2.4287,2.4264,2.4262,2.427,2.4274,2.4277,2.4273,2.4154,2.4259,2.4258,2.4258,2.4257,2.4257,2.4256,2.4275,2.4274,2.4289,2.429,2.4295,2.4311,2.4304,2.4318,2.4329,2.4316,2.4336,2.4337,2.4348,2.4349,2.4365,2.4348,2.436,2.4362,2.4365,2.4368,2.4277,2.4367,2.4367,2.4366,2.4366,2.4366,0,2.4352,2.4349,2.4363,2.437,2.4381,2.4359,2.4363,2.4374,2.4392,2.4394,2.4405,2.4424,2.4438,2.443,2.4441,2.4455,2.4445,2.4459,2.4456,2.4456,2.4384,2.4375,2.4467,2.4467,2.4467,2.4467,2.4467,2.4467,2.4403,2.4434,2.4424,2.4454,2.4451,2.447,2.4474,2.4478,2.4479,2.4501,2.4512,2.4506,2.4504,2.4515,2.4526,2.4524,2.4528,2.4545,2.4538,2.4471,2.4461,2.4452,2.4442,2.4547,2.4547,2.4608,2.4609,2.4609]},{"header":{"parameterUnit":"m.s-1","parameterCategory":1,"la1":30.2991,"la2":30.254,"lo1":-89.0895,"lo2":-89.0444,"dy":0.0017,"dx":0.0017,"nx":28,"ny":28,"refTime":"2023-08-17T03:00:00:Z","depth":0,"parameterNumber":3,"parameterNumberName":"V-component_of_WINDS"},"data":[0,0,0,0,0,0,0,0,0,0,0,0,0,0,0,0,0,0,0,0,0,0,0,0,0,0,0,0,0,0,0,0,0,0,0,0,0,0,0,0,0,0,0,0,0,0,0,0,0,0,0,0,0,0,0,0,0,0,6.2351,6.2352,0,6.2398,6.2399,6.2399,6.2318,6.2316,6.2313,6.231,6.2353,6.2357,6.236,0,0,0,0,0,0,0,0,0,0,0,0,0,6.2184,6.2188,6.2351,6.2352,6.2352,6.2398,6.2399,6.2399,6.2319,6.2315,6.2312,6.2309,6.2352,6.2356,6.2361,0,0,0,0,0,0,0,0,0,0,0,0,0,6.2246,6.2189,6.2351,6.2318,6.2315,6.2398,6.2399,6.24,6.2319,6.2315,6.2311,6.2307,6.235,6.2356,6.2361,6.2477,0,0,6.2378,6.238,0,0,0,0,0,0,0,0,6.2243,6.2253,6.2322,6.232,6.2317,6.2348,6.2356,6.2425,6.232,6.2318,6.231,6.2305,6.2354,6.2359,6.2377,6.2479,6.2481,6.2379,6.2382,6.2384,6.2386,0,0,0,0,0,0,0,6.2239,6.225,6.2369,6.2323,6.232,6.2298,6.2302,6.2368,6.2358,6.2318,6.2312,6.2319,6.2352,6.2372,6.2377,6.2482,6.2378,6.2383,6.2387,6.2389,6.2678,6.2683,0,0,0,0,0,0,6.2239,6.2247,6.2368,6.2371,6.227,6.2304,6.2309,6.2342,6.2357,6.2356,6.2322,6.2315,6.2364,6.2371,6.2379,6.2513,6.2384,6.2389,6.2393,6.2674,6.2679,6.2684,0,0,0,0,0,0,6.2236,6.2251,6.2366,6.2308,6.232,6.2312,6.235,6.2346,6.2365,6.2361,6.2358,6.2345,6.2361,6.2371,6.2453,6.2514,6.2392,6.2397,6.2669,6.2676,6.2682,6.2785,0,0,0,0,0,0,6.2232,6.225,6.2296,6.2309,6.2324,6.2442,6.2353,6.2349,6.2375,6.2366,6.2381,6.238,6.2359,6.2445,6.2459,6.2519,6.2401,6.2663,6.2672,6.268,6.2776,6.2795,6.281,0,0,0,0,0,6.2226,6.2322,6.2299,6.2314,6.2381,6.2446,6.2454,6.243,6.2381,6.2425,6.2422,6.2379,6.2506,6.2454,6.2469,6.2532,6.2659,6.267,6.2679,6.2769,6.2791,6.281,0,0,0,0,0,0,6.2315,6.2324,6.2297,6.2401,6.2424,6.2432,6.2487,6.2455,6.249,6.2479,6.2446,6.245,6.2539,6.2544,6.2486,6.2644,6.2574,6.2587,6.2637,6.2658,6.2675,6.2671,6.2406,0,0,0,0,0,6.2347,6.2401,6.2405,6.2496,6.2508,6.2497,6.2524,6.2503,6.2524,6.2533,6.2536,6.2556,6.26,6.263,6.267,6.2777,6.2778,6.2828,6.2845,6.2858,6.287,6.2924,6.2946,6.2717,6.2716,6.2716,0,0,6.2412,6.2424,6.246,6.2514,6.2529,6.2583,6.2505,6.2566,6.2605,6.2541,6.2619,6.2622,6.2642,6.2737,6.2779,6.2744,6.2933,6.2871,6.2882,6.2886,6.2937,6.2958,6.2978,6.2723,6.2722,6.2721,0,0,6.256,6.2575,6.2652,6.2669,6.2693,6.2684,6.2703,6.2716,6.2716,6.2794,6.2747,6.2792,6.287,6.2885,6.2904,6.3057,6.3017,6.3071,6.3158,6.3212,6.323,6.3246,6.3298,6.3318,6.3082,6.3082,6.3083,0,6.2638,6.272,6.2695,6.2759,6.2783,6.273,6.2806,6.2823,6.2858,6.2875,6.2836,6.2931,6.2941,6.3038,6.3075,6.3092,6.311,6.3068,6.323,6.3245,6.326,6.3309,6.3329,6.3089,6.3088,6.3087,6.3087,0,6.2813,6.2871,6.2929,6.2967,6.2997,6.3067,6.3051,6.3085,6.3062,6.3056,6.3135,6.3146,6.3186,6.3208,6.3186,6.3302,6.3279,6.3236,6.3164,6.3288,6.3334,6.3353,6.3097,6.3095,6.3093,6.3092,0,0,6.3017,6.304,6.3061,6.3077,6.31,6.3142,6.3209,6.325,6.3279,6.3305,6.3358,6.3425,6.3384,6.3405,6.3384,6.3432,6.355,6.3382,6.3382,6.3411,6.3675,6.3706,6.3729,6.3525,6.3528,6.3531,6.3673,0,6.3161,6.3278,6.3258,6.337,6.3421,6.3371,6.3429,6.3447,6.3444,6.3486,6.3481,6.3528,6.3473,6.3485,6.353,6.3526,6.3602,6.3516,6.3571,6.3574,6.3566,6.3753,6.3786,6.392,6.3691,6.3694,6.3696,0,6.3346,6.338,6.3499,6.3512,6.3532,6.3585,6.362,6.3661,6.3681,6.3675,6.3699,6.3668,6.3732,6.3662,6.3747,6.3689,6.3711,6.3712,6.3717,6.3719,6.3641,6.3759,6.3962,6.3981,6.3724,6.3722,6.372,0,6.348,6.3556,6.3636,6.3651,6.3669,6.3706,6.3715,6.3731,6.3757,6.3788,6.3803,6.3841,6.3861,6.389,6.3869,6.382,6.3958,6.3886,6.3953,6.3953,6.3982,6.398,6.419,6.4,6.4,6.3999,6.3999,0,6.3642,6.3716,6.3696,6.3745,6.3825,6.38,6.3879,6.3882,6.3896,6.3943,6.3902,6.3946,6.3918,6.396,6.3944,6.4017,6.4026,6.4022,6.4016,6.4024,6.4025,6.4036,6.4026,6.4004,6.4003,6.4002,6.4001,0,6.3805,6.3795,6.3878,6.3889,6.3893,6.3952,6.3959,6.4004,6.3998,6.4058,6.407,6.406,6.4107,6.409,6.414,6.4129,6.4221,6.4204,6.4215,6.421,6.4276,6.427,6.4499,6.4527,6.4321,6.4323,6.4325,0,6.3908,6.3964,6.3981,6.401,6.4023,6.407,6.4097,6.4074,6.4103,6.4129,6.417,6.4213,6.4247,6.4323,6.4319,6.4356,6.4339,6.4417,6.4344,6.435,6.4338,6.4334,6.4338,6.4431,6.4433,6.4435,6.4437,0,6.4092,6.4084,6.4125,6.4165,6.4198,6.4227,6.4252,6.4278,6.4256,6.429,6.4339,6.4365,6.4416,6.4459,6.4492,6.4499,6.4464,6.446,6.4477,6.4485,6.4487,6.4485,6.4252,6.4454,6.4452,6.4451,6.445,6.445,6.4227,6.4273,6.4292,6.4339,6.4356,6.438,6.4422,6.4422,6.4462,6.4503,6.4487,6.4542,6.4558,6.46,6.4611,6.4653,6.4622,6.4647,6.4653,6.4659,6.4667,6.4483,6.4659,6.4658,6.4658,6.4657,6.4657,0,6.4407,6.4417,6.446,6.4497,6.4533,6.45,6.4525,6.4557,6.4607,6.4626,6.466,6.4715,6.4756,6.4756,6.4793,6.4826,6.4811,6.4837,6.4833,6.4835,6.4693,6.4674,6.4848,6.4848,6.4848,6.4848,6.4848,6.4848,6.4504,6.4581,6.4575,6.4658,6.4667,6.4722,6.474,6.4761,6.4776,6.484,6.4875,6.4875,6.4885,6.4924,6.4959,6.4958,6.4973,6.5004,6.4997,6.4864,6.4845,6.4827,6.4808,6.5008,6.5009,6.5135,6.5136,6.5137]}]]